This is the latest recevied weather packets stored in our database for station/object KD7ECD. If no packets are shown the sender has not sent any weather packets the latest 10 day(s).
| Time | Temp. | Humidity | Pressure | Rain* | Wind** | Luminosity | Snow |
|---|---|---|---|---|---|---|---|
| 1777957709 | 12.22° C | 86% | 1017.5 hPa | 0 mm | - | 0 W/m² | - |
| 1777957109 | 12.22° C | 86% | 1017.8 hPa | 0 mm | - | 0 W/m² | - |
| 1777956509 | 12.22° C | 87% | 1017.8 hPa | 0 mm | - | 0 W/m² | - |
| 1777955908 | 12.22° C | 87% | 1017.8 hPa | 0 mm | - | 0 W/m² | - |
| 1777955307 | 12.22° C | 87% | 1017.7 hPa | 0 mm | - | 0 W/m² | - |
| 1777954706 | 12.22° C | 87% | 1017.3 hPa | 0 mm | - | 0 W/m² | - |
| 1777954101 | 12.22° C | 86% | 1017.2 hPa | 0 mm | - | 0 W/m² | - |
| 1777953501 | 12.22° C | 85% | 1017.5 hPa | 0 mm | - | 0 W/m² | - |
| 1777952900 | 12.22° C | 84% | 1017.4 hPa | 0 mm | - | 0 W/m² | - |
| 1777952300 | 12.22° C | 82% | 1017.2 hPa | 0 mm | - | 0 W/m² | - |
| 1777951695 | 12.78° C | 81% | 1016.8 hPa | 0 mm | - | 0 W/m² | - |
| 1777951094 | 12.78° C | 80% | 1017 hPa | 0 mm | - | 0 W/m² | - |
| 1777950493 | 12.78° C | 80% | 1017 hPa | 0 mm | - | 0 W/m² | - |
| 1777949890 | 13.33° C | 80% | 1016.8 hPa | 0 mm | - | 0 W/m² | - |
| 1777949286 | 13.33° C | 78% | 1016.7 hPa | 0 mm | - | 3 W/m² | - |
| 1777948687 | 13.33° C | 78% | 1016.9 hPa | 0 mm | - | 5 W/m² | - |
| 1777948087 | 13.89° C | 77% | 1016.7 hPa | 0 mm | - | 9 W/m² | - |
| 1777947486 | 13.89° C | 76% | 1016.8 hPa | 0 mm | - | 12 W/m² | - |
| 1777946884 | 13.89° C | 74% | 1016.9 hPa | 0 mm | - | 11 W/m² | - |
| 1777946283 | 14.44° C | 72% | 1016.8 hPa | 0 mm | - | 8 W/m² | - |
| 1777945683 | 15° C | 72% | 1016.9 hPa | 0 mm | - | 19 W/m² | - |
| 1777945083 | 15° C | 71% | 1016.8 hPa | 0 mm | - | 30 W/m² | - |
| 1777944478 | 15° C | 70% | 1016.8 hPa | 0 mm | - | 39 W/m² | - |
| 1777943877 | 15° C | 69% | 1017 hPa | 0 mm | - | 67 W/m² | - |
| 1777943276 | 15° C | 69% | 1017 hPa | 0 mm | - | 88 W/m² | - |
* Rain latest hour (hover to see other rain measurements)
** Current wind speed in m/s (hover to see current wind gust speed)